K5KVN-2 Weather Reports


time (UTC)temp
C
wind
direction
speed
KPH
gust
KPH
rain 1hr
cm
rain 24hr
cm
rain mn
cm
humidity
%
barometer
mb
20260507192947 18 168 6.4 16.1 0.00 0.00 0.00 44 1017.0
20260507191946 18 155 6.4 16.1 0.00 0.00 0.00 46 1017.2
20260507190945 18 209 6.4 14.5 0.00 0.00 0.00 49 1017.2
20260507190440 18 277 8.0 17.7 0.00 0.00 0.00 45 1017.2
20260507184945 18 225 9.7 17.7 0.00 0.00 0.00 50 1017.3
20260507183947 18 286 6.4 16.1 0.00 0.00 0.00 46 1017.4
20260507182945 18 314 6.4 17.7 0.00 0.00 0.00 44 1017.4
20260507181947 18 189 8.0 14.5 0.00 0.00 0.00 48 1017.5
20260507180945 18 315 6.4 17.7 0.00 0.00 0.00 43 1017.7
20260507175946 17 189 3.2 16.1 0.00 0.00 0.00 46 1018.0
20260507174945 17 317 4.8 12.9 0.00 0.00 0.00 42 1018.2
20260507173947 17 334 6.4 12.9 0.00 0.00 0.00 43 1018.4
20260507172946 17 273 4.8 11.3 0.00 0.00 0.00 47 1018.6
20260507171946 17 181 4.8 14.5 0.00 0.00 0.00 47 1018.4
20260507170946 17 307 6.4 16.1 0.00 0.00 0.00 46 1018.6
20260507165945 17 312 4.8 12.9 0.00 0.00 0.00 50 1018.7
20260507164942 16 331 4.8 14.5 0.00 0.00 0.00 45 1019.0
20260507163945 16 285 6.4 16.1 0.00 0.00 0.00 48 1019.1
20260507162941 16 339 8.0 16.1 0.00 0.00 0.00 51 1019.1
20260507161937 16 12 6.4 16.1 0.00 0.00 0.00 46 1019.2
20260507160939 15 244 4.8 11.3 0.00 0.00 0.00 52 1019.2
20260507160414 15 182 8.0 17.7 0.00 0.00 0.00 51 1019.4
20260507154931 15 150 3.2 9.7 0.00 0.00 0.00 51 1019.4
20260507153932 15 228 4.8 12.9 0.00 0.00 0.00 50 1019.4
20260507152931 15 355 4.8 14.5 0.00 0.00 0.00 51 1019.4
20260507151933 14 175 4.8 11.3 0.00 0.00 0.00 54 1019.4
20260507150935 13 164 3.2 8.0 0.00 0.00 0.00 59 1019.6
20260507145930 13 147 3.2 9.7 0.00 0.00 0.00 57 1019.5
20260507145413 13 175 3.2 9.7 0.00 0.00 0.00 62 1019.5
20260507143931 12 169 3.2 9.7 0.00 0.00 0.00 65 1019.4
20260507142931 12 203 3.2 8.0 0.00 0.00 0.00 69 1019.4
20260507141929 11 141 0.0 3.2 0.00 0.00 0.00 72 1019.3
20260507141408 11 146 1.6 4.8 0.00 0.00 0.00 76 1019.3
20260507135928 10 152 1.6 4.8 0.00 0.00 0.00 84 1019.3
20260507134924 9 170 1.6 3.2 0.00 0.00 0.00 87 1019.5
20260507133924 8 143 0.0 0.0 0.00 0.00 0.00 90 1019.5
20260507132924 8 133 0.0 1.6 0.00 0.00 0.00 92 1019.6
20260507131924 7 135 0.0 1.6 0.00 0.00 0.00 92 1019.6
20260507130922 7 135 0.0 3.2 0.00 0.00 0.00 93 1019.5
20260507130407 7 73 0.0 3.2 0.00 0.00 0.00 94 1019.4
20260507124921 6 103 0.0 1.6 0.00 0.00 0.00 94 1019.4
20260507123920 6 96 0.0 1.6 0.00 0.00 0.00 94 1019.2
20260507123412 6 350 0.0 1.6 0.00 0.00 0.00 94 1019.0
20260507121921 5 350 0.0 1.6 0.00 0.00 0.00 94 1019.1
20260507120917 5 350 0.0 1.6 0.00 0.00 0.00 95 1019.1
20260507115917 4 320 0.0 0.0 0.00 0.00 0.00 95 1019.1
20260507115356 3 320 0.0 0.0 0.00 0.00 0.00 94 1019.0
20260507113917 3 320 0.0 0.0 0.00 0.00 0.00 93 1018.9
20260507113400 3 320 0.0 0.0 0.00 0.00 0.00 93 1019.1
20260507111916 4 320 0.0 0.0 0.00 0.00 0.00 94 1019.1
20260507110918 4 320 0.0 1.6 0.00 0.00 0.00 94 1018.8
20260507110358 4 320 0.0 1.6 0.00 0.00 0.00 94 1018.6
20260507104917 3 320 0.0 0.0 0.00 0.00 0.00 94 1018.6
20260507103919 3 320 0.0 0.0 0.00 0.00 0.00 94 1018.7
20260507102912 3 320 0.0 0.0 0.00 0.00 0.00 93 1018.6
20260507101911 3 320 0.0 0.0 0.00 0.00 0.00 93 1018.8
20260507100910 3 320 0.0 0.0 0.00 0.00 0.00 93 1018.8
20260507095911 3 320 0.0 1.6 0.00 0.00 0.00 93 1018.9
20260507094910 3 298 0.0 0.0 0.00 0.00 0.00 93 1018.8
20260507093912 4 298 0.0 0.0 0.00 0.00 0.00 93 1018.9
20260507091913 4 298 0.0 0.0 0.00 0.00 0.00 93 1018.7
20260507090911 4 298 0.0 1.6 0.00 0.00 0.00 92 1018.7
20260507085906 4 298 0.0 1.6 0.00 0.00 0.00 92 1018.7
20260507084905 4 298 0.0 3.2 0.00 0.00 0.00 92 1018.7
20260507084357 4 298 0.0 1.6 0.00 0.00 0.00 92 1018.6
20260507082901 4 298 0.0 0.0 0.00 0.00 0.00 92 1018.4
20260507081904 4 298 1.6 4.8 0.00 0.00 0.00 92 1018.4
20260507081350 5 293 0.0 4.8 0.00 0.00 0.00 91 1018.7
20260507075904 5 309 0.0 0.0 0.00 0.00 0.00 90 1018.4
20260507074903 5 310 0.0 1.6 0.00 0.00 0.00 91 1018.3
20260507073906 5 321 0.0 3.2 0.00 0.00 0.00 90 1018.3
20260507072900 5 321 0.0 0.0 0.00 0.00 0.00 90 1018.2
20260507071900 5 321 1.6 3.2 0.00 0.00 0.00 89 1018.4
20260507070857 5 325 0.0 0.0 0.00 0.00 0.00 89 1018.6
20260507065856 6 325 0.0 0.0 0.00 0.00 0.00 88 1018.8
20260507062855 7 293 0.0 0.0 0.00 0.00 0.00 82 1018.6
20260507060854 8 318 1.6 6.4 0.00 0.00 0.00 78 1018.7
20260507055848 8 331 6.4 8.0 0.00 0.00 0.00 78 1018.7
20260507054848 8 333 6.4 8.0 0.00 0.00 0.00 78 1018.7
20260507053848 8 355 4.8 8.0 0.00 0.00 0.00 79 1018.4
20260507052847 8 327 3.2 6.4 0.00 0.00 0.00 79 1018.6
20260507052323 8 325 3.2 4.8 0.00 0.00 0.00 78 1018.6
20260507050848 8 341 1.6 4.8 0.00 0.00 0.00 78 1018.3
20260507045845 8 331 1.6 4.8 0.00 0.00 0.00 79 1018.4
20260507044845 8 338 1.6 3.2 0.00 0.00 0.00 79 1018.3
20260507043844 8 318 1.6 4.8 0.00 0.00 0.00 79 1018.2
20260507043314 8 333 3.2 4.8 0.00 0.00 0.00 78 1018.0
20260507041849 9 329 1.6 4.8 0.00 0.00 0.00 78 1018.1
20260507040842 9 323 3.2 4.8 0.00 0.00 0.00 79 1018.1
20260507040341 9 333 1.6 4.8 0.00 0.00 0.00 79 1018.0
20260507034838 9 329 0.0 3.2 0.00 0.00 0.00 80 1017.9
20260507032836 10 335 3.2 4.8 0.00 0.00 0.00 79 1017.9
20260507031836 10 327 3.2 4.8 0.00 0.00 0.00 79 1017.8
20260507030838 10 327 3.2 4.8 0.00 0.00 0.00 79 1017.6
20260507025835 9 318 1.6 6.4 0.00 0.00 0.00 84 1017.5
20260507025338 9 321 0.0 0.0 0.00 0.00 0.00 85 1017.4
20260507023838 10 321 0.0 4.8 0.00 0.00 0.00 83 1017.3
20260507022834 10 317 0.0 3.2 0.00 0.00 0.00 83 1017.3
20260507021835 10 323 1.6 6.4 0.00 0.00 0.00 83 1017.2
20260507020835 10 313 4.8 6.4 0.00 0.00 0.00 82 1017.1
20260507015835 10 320 1.6 6.4 0.00 0.00 0.00 82 1017.0
20260507014836 10 293 0.0 3.2 0.00 0.00 0.00 81 1017.0
20260507013833 11 293 0.0 0.0 0.00 0.00 0.00 80 1016.9
20260507012836 11 293 0.0 1.6 0.00 0.00 0.00 79 1016.8
20260507011835 11 293 0.0 3.2 0.00 0.00 0.00 78 1016.5
20260507010835 12 293 0.0 3.2 0.00 0.00 0.00 75 1016.6
20260507005836 13 281 0.0 0.0 0.00 0.00 0.00 71 1016.6
20260507004835 13 281 0.0 0.0 0.00 0.05 0.00 71 1016.5
20260507003836 13 219 0.0 0.0 0.00 0.05 0.00 67 1016.4
20260507002832 13 219 0.0 0.0 0.00 0.05 0.00 65 1016.5
20260507001832 13 219 0.0 3.2 0.00 0.05 0.00 64 1016.5
20260507000833 13 48 0.0 4.8 0.00 0.05 0.00 64 1016.3
20260506235831 14 55 1.6 6.4 0.00 0.05 0.00 66 1016.2
20260506233830 14 38 1.6 4.8 0.00 0.05 0.00 64 1016.3
20260506232829 14 327 0.0 6.4 0.00 0.05 0.00 64 1016.3
20260506231832 14 24 0.0 3.2 0.00 0.05 0.00 63 1016.3
20260506230830 14 51 1.6 4.8 0.00 0.05 0.00 63 1016.2
20260506225830 14 74 3.2 9.7 0.00 0.05 0.00 61 1015.9
20260506223827 14 69 4.8 11.3 0.00 0.05 0.00 65 1015.5
20260506222823 14 355 6.4 16.1 0.00 0.05 0.00 65 1015.2
20260506221821 14 15 6.4 19.3 0.00 0.05 0.00 66 1014.8
20260506220816 14 22 6.4 16.1 0.00 0.05 0.00 66 1014.7
20260506215815 14 63 4.8 19.3 0.00 0.05 0.00 64 1015.0
20260506214814 14 28 4.8 16.1 0.00 0.05 0.00 64 1015.1
20260506213809 14 65 3.2 12.9 0.00 0.05 0.00 64 1015.3
20260506212809 14 98 3.2 12.9 0.00 0.05 0.00 65 1015.2
20260506211807 14 355 3.2 12.9 0.00 0.05 0.00 66 1015.4
20260506210809 14 15 4.8 14.5 0.00 0.05 0.00 63 1015.4
20260506205805 13 62 4.8 14.5 0.00 0.05 0.00 64 1015.5
20260506204805 14 52 6.4 16.1 0.00 0.05 0.00 63 1015.7
20260506203805 14 311 4.8 16.1 0.00 0.05 0.00 64 1016.1
20260506202804 14 9 3.2 9.7 0.00 0.05 0.00 64 1016.2
20260506202236 13 115 3.2 12.9 0.00 0.05 0.00 65 1016.3
20260506200803 14 323 4.8 12.9 0.00 0.05 0.00 64 1016.4
20260506200237 14 348 3.2 14.5 0.00 0.05 0.00 65 1016.4
20260506194801 13 59 3.2 16.1 0.00 0.05 0.00 66 1016.8
20260506193803 13 334 4.8 14.5 0.00 0.05 0.00 68 1017.0